Location: Chiroubles
(46.1812°N, 4.6660°E)
Time: 03:33:43
(UTC+00:00)

Tiros 1 - Pass Details

Date: 02 December 2020
Orbit: 630 x 663 km, 48.4° (Epoch: 16 January)

Event Time Altitude Azimuth Distance (km) Brightness Sun altitude
Rises 16:27:27 0° 274° (W) 2,994 11.7 -5.5°
Reaches altitude 10° 16:29:49 10° 277° (W) 2,080 10.8 -5.9°
Maximum altitude 16:34:36 66° 0° (N) 719 7.3 -6.6°
Drops below altitude 10° 16:39:22 10° 84° (E) 2,066 9.1 -7.4°
Enters shadow 16:39:51 - 84° (E) 2,253 9.3 -7.4°
